This is the latest recevied weather packets stored in our database for station/object K5NWZ. If no packets are shown the sender has not sent any weather packets the latest 10 day(s).
| Time | Temp. | Humidity | Pressure | Rain* | Wind** | Luminosity | Snow |
|---|---|---|---|---|---|---|---|
| 1787664560 | 19.44° C | 65% | 1035 hPa | 0 mm | - | 52 W/m² | - |
| 1787664255 | 18.89° C | 65% | 1034.8 hPa | 0 mm | - | 39 W/m² | - |
| 1787663954 | 18.89° C | 66% | 1034.8 hPa | 0 mm | - | 36 W/m² | - |
| 1787663649 | 18.89° C | 65% | 1034.8 hPa | 0 mm | - | 29 W/m² | - |
| 1787663344 | 18.89° C | 66% | 1034.8 hPa | 0 mm | - | 24 W/m² | - |
| 1787663041 | 18.33° C | 66% | 1034.5 hPa | 0 mm | - | 22 W/m² | - |
| 1787662741 | 18.33° C | 66% | 1034.5 hPa | 0 mm | - | 18 W/m² | - |
| 1787662435 | 18.33° C | 65% | 1034.3 hPa | 0 mm | - | 14 W/m² | - |
| 1787662130 | 17.78° C | 65% | 1034.4 hPa | 0 mm | - | 11 W/m² | - |
| 1787661827 | 18.33° C | 66% | 1034.3 hPa | 0 mm | - | 8 W/m² | - |
| 1787661526 | 18.33° C | 65% | 1034.4 hPa | 0 mm | - | 6 W/m² | - |
| 1787661225 | 18.33° C | 64% | 1033.9 hPa | 0 mm | - | 5 W/m² | - |
| 1787660923 | 18.33° C | 64% | 1033.9 hPa | 0 mm | - | 4 W/m² | - |
| 1787660618 | 18.33° C | 65% | 1033.6 hPa | 0 mm | - | 2 W/m² | - |
| 1787660314 | 18.33° C | 65% | 1033.8 hPa | 0 mm | - | 1 W/m² | - |
| 1787660009 | 18.33° C | 65% | 1033.7 hPa | 0 mm | - | 1 W/m² | - |
| 1787659706 | 17.78° C | 66% | 1033.7 hPa | 0 mm | - | 0 W/m² | - |
| 1787659401 | 17.78° C | 67% | 1033.4 hPa | 0 mm | - | 0 W/m² | - |
| 1787659101 | 17.78° C | 68% | 1033.4 hPa | 0 mm | - | 0 W/m² | - |
| 1787658796 | 17.78° C | 68% | 1033.4 hPa | 0 mm | - | 0 W/m² | - |
| 1787658495 | 17.22° C | 67% | 1033.1 hPa | 0 mm | - | 0 W/m² | - |
| 1787658192 | 17.22° C | 70% | 1033.6 hPa | 0 mm | - | 0 W/m² | - |
| 1787657887 | 17.22° C | 71% | 1033.3 hPa | 0 mm | - | 0 W/m² | - |
| 1787657587 | 17.78° C | 70% | 1032.9 hPa | 0 mm | - | 0 W/m² | - |
| 1787657283 | 17.22° C | 70% | 1033.1 hPa | 0 mm | - | 0 W/m² | - |
* Rain latest hour (hover to see other rain measurements)
** Current wind speed in m/s (hover to see current wind gust speed)